Location: Newark
(6.1731°S, 35.7419°E)
Time: 21:27:32
(UTC+00:00)

Altair - Visible Passes

Search period start: 18 February 2020 00:00
Search period end: 28 February 2020 00:00
Orbit: 1502 x 1682 km, 47.2° (Epoch: 17 February)

Date Brightness Start Highest point End Pass type
(mag) Time Alt. Az. Time Alt. Az. Time Alt. Az.
18 Feb 8.8 19:10:05 10° SSW 19:13:55 26° S 19:13:55 26° S visible
19 Feb 8.5 18:45:07 10° SSW 18:50:10 31° S 18:50:10 31° S visible
20 Feb 8.3 18:20:10 10° SSW 18:26:29 34° SSE 18:26:29 34° SSE visible
20 Feb 9.7 20:24:21 10° WSW 20:24:31 11° WSW 20:24:31 11° WSW visible
21 Feb 8.2 17:55:14 10° SSW 18:02:52 33° SE 18:02:52 33° SE visible
21 Feb 9.3 19:59:02 10° SW 20:00:54 17° WSW 20:00:54 17° WSW visible
22 Feb 8.2 17:30:21 10° SSW 17:38:05 30° SE 17:39:19 29° ESE visible
22 Feb 8.9 19:33:45 10° SW 19:37:21 27° WSW 19:37:21 27° WSW visible
23 Feb 8.4 17:05:29 10° S 17:12:51 26° SE 17:15:51 22° ESE visible
23 Feb 8.4 19:08:30 10° SW 19:13:53 39° WSW 19:13:53 39° WSW visible
24 Feb 8.5 16:40:40 10° S 16:47:37 23° SE 16:52:27 15° E visible
24 Feb 7.7 18:43:17 10° SW 18:50:30 58° WSW 18:50:30 58° WSW visible
25 Feb 8.7 16:15:55 10° S 16:22:22 21° SE 16:28:44 10° E visible
25 Feb 7.3 18:18:05 10° SW 18:27:12 81° WNW 18:27:12 81° WNW visible
26 Feb 7.3 17:52:55 10° SW 18:02:10 90° NW 18:03:58 64° NE visible
26 Feb 9.7 20:01:38 10° W 20:02:03 11° W 20:02:03 11° W visible
27 Feb 7.3 17:27:46 10° SW 17:37:02 82° SE 17:40:51 41° NE visible
27 Feb 9.3 19:35:40 10° W 19:38:56 16° WNW 19:38:56 16° WNW visible
